sat.trackr.live / text

‹ back to catalog

STARLINK-30532

NORAD 58070 · 2023-158V

PAYLOAD ACTIVE UNKNOWN

§ Identity

Operator
Country
US
Launch date
2023-10-13
Launch site
AFETR
Launch vehicle
Mass (kg)
RCS (m²)

Purposes: comms

External: N2YO · Heavens-Above · Gunter

§ Orbital elements

Epoch: 2026-05-23T23:23:58.490592Z

Period
94.27 min
Inclination
43.0019°
Eccentricity
0.0001529
Mean motion
15.27595494 rev/d
Perigee alt
482.0 km
Apogee alt
484.1 km
Semi-major
6,861.1 km
B*
2.7515e-4
RAAN
321.8941°
Arg perigee
266.7027°
Mean anomaly
93.3649°
Rev number
14,508

§ Raw data

STARLINK-305321 58070U 23158V   26143.97498253  .00007321  00000+0  27515-3 0  99972 58070  43.0019 321.8941 0001529 266.7027  93.3649 15.27595494145087

JSON: /api/v1/satellites/58070 · /tle

For live sub-satellite position, see the globe view (requires WebGL).

§ Visibility from observer

Set your observer location to see the next 7 days of passes ≥ 10°. The values pass through the URL so the page stays shareable.

No JS? Fill the form by hand. The geolocation button needs JavaScript.